Hourly Data Report for November 26, 2019

OTTAWA INTL A
ONTARIO
Current Station Operator: NAVCAN

45°19'00.000" N
75°40'00.000" W
114.90 m
6106001
71628
YOW

Download Data

Hourly Data (November 2019)
Hourly Data Report for November 26, 2019
TIME Temp Definition
°C
Dew Point Definition
°C
Rel Hum Definition
%
Wind Dir Definition
10's deg

Wind Spd Definition
km/h
Visibility Definition
km
Stn Press Definition
kPa
Hmdx Definition


Wind Chill Definition


Weather Definition


00:00 4.5 3.8 95 15 10 6.4 99.53     Fog
01:00 4.1 3.5 96 14 8 6.4 99.49     Fog
02:00 3.0 2.5 96 15 10 8.1 99.52     Fog
03:00 3.4 2.7 95 13 13 12.9 99.46     LegendNANA
04:00 3.5 2.5 93 14 12 12.9 99.40     Cloudy
05:00 3.9 2.4 90 15 14 12.9 99.35     LegendNANA
06:00 4.7 2.3 84 18 10 24.1 99.38     LegendNANA
07:00 4.2 1.8 84 17 9 24.1 99.39     Rain
08:00 5.0 2.3 83 19 13 24.1 99.42     Rain
09:00 6.0 3.1 81 21 10 24.1 99.48     LegendNANA
10:00 7.3 3.8 78 24 11 24.1 99.55     Cloudy
11:00 8.1 4.1 76 25 21 24.1 99.60     LegendNANA
12:00 9.4 4.4 71 24 18 24.1 99.60     LegendNANA
13:00 10.0 4.0 66 24 26 24.1 99.63     Mostly Cloudy
14:00 9.6 2.3 60 26 23 24.1 99.70     LegendNANA
15:00 9.7 1.9 58 26 16 24.1 99.80     LegendNANA
16:00 8.8 1.3 59 25 11 24.1 99.95     Mostly Cloudy
17:00 7.5 1.0 63 26 11 24.1 100.05     LegendNANA
18:00 6.3 0.6 67 27 7 24.1 100.14     LegendNANA
19:00 3.8 -0.7 73 30 7 24.1 100.21     Clear
20:00 4.8 0.2 72 32 8 24.1 100.25     LegendNANA
21:00 4.2 -0.1 74 34 8 24.1 100.30     LegendNANA
22:00 0.6 -1.6 85 36 8 24.1 100.32     Mainly Clear
23:00 -0.2 -1.5 91 2 6 24.1 100.36   -2 LegendNANA

Notes on Data Quality.

Legend

  • E = Estimated
  • M = Missing
  • NA = Not Available*
  • [empty] = Indicates an unobserved value
Date modified: